| time (UTC) | temp C | wind direction | speed KPH | gust KPH | rain 1hr cm | rain 24hr cm | rain mn cm | humidity % | barometer mb |
| 20260506221821 | 14 | 15 | 6.4 | 19.3 | 0.00 | 0.05 | 0.00 | 66 | 1014.8 |
| 20260506220816 | 14 | 22 | 6.4 | 16.1 | 0.00 | 0.05 | 0.00 | 66 | 1014.7 |
| 20260506215815 | 14 | 63 | 4.8 | 19.3 | 0.00 | 0.05 | 0.00 | 64 | 1015.0 |
| 20260506214814 | 14 | 28 | 4.8 | 16.1 | 0.00 | 0.05 | 0.00 | 64 | 1015.1 |
| 20260506213809 | 14 | 65 | 3.2 | 12.9 | 0.00 | 0.05 | 0.00 | 64 | 1015.3 |
| 20260506212809 | 14 | 98 | 3.2 | 12.9 | 0.00 | 0.05 | 0.00 | 65 | 1015.2 |
| 20260506211807 | 14 | 355 | 3.2 | 12.9 | 0.00 | 0.05 | 0.00 | 66 | 1015.4 |
| 20260506210809 | 14 | 15 | 4.8 | 14.5 | 0.00 | 0.05 | 0.00 | 63 | 1015.4 |
| 20260506205805 | 13 | 62 | 4.8 | 14.5 | 0.00 | 0.05 | 0.00 | 64 | 1015.5 |
| 20260506204805 | 14 | 52 | 6.4 | 16.1 | 0.00 | 0.05 | 0.00 | 63 | 1015.7 |
| 20260506203805 | 14 | 311 | 4.8 | 16.1 | 0.00 | 0.05 | 0.00 | 64 | 1016.1 |
| 20260506202804 | 14 | 9 | 3.2 | 9.7 | 0.00 | 0.05 | 0.00 | 64 | 1016.2 |
| 20260506202236 | 13 | 115 | 3.2 | 12.9 | 0.00 | 0.05 | 0.00 | 65 | 1016.3 |
| 20260506200803 | 14 | 323 | 4.8 | 12.9 | 0.00 | 0.05 | 0.00 | 64 | 1016.4 |
| 20260506200237 | 14 | 348 | 3.2 | 14.5 | 0.00 | 0.05 | 0.00 | 65 | 1016.4 |
| 20260506194801 | 13 | 59 | 3.2 | 16.1 | 0.00 | 0.05 | 0.00 | 66 | 1016.8 |
| 20260506193803 | 13 | 334 | 4.8 | 14.5 | 0.00 | 0.05 | 0.00 | 68 | 1017.0 |
| 20260506192800 | 13 | 20 | 6.4 | 16.1 | 0.00 | 0.05 | 0.00 | 65 | 1016.9 |
| 20260506191806 | 14 | 14 | 4.8 | 14.5 | 0.00 | 0.05 | 0.00 | 66 | 1016.8 |
| 20260506190803 | 14 | 5 | 4.8 | 14.5 | 0.00 | 0.05 | 0.00 | 67 | 1017.0 |
| 20260506185802 | 13 | 58 | 9.7 | 24.1 | 0.00 | 0.05 | 0.00 | 65 | 1017.0 |
| 20260506184802 | 13 | 51 | 4.8 | 17.7 | 0.00 | 0.05 | 0.00 | 67 | 1017.0 |
| 20260506183757 | 12 | 0 | 9.7 | 20.9 | 0.00 | 0.05 | 0.00 | 68 | 1017.3 |
| 20260506182759 | 12 | 90 | 6.4 | 17.7 | 0.00 | 0.05 | 0.00 | 66 | 1017.3 |
| 20260506181757 | 12 | 100 | 8.0 | 22.5 | 0.00 | 0.05 | 0.00 | 64 | 1017.5 |
| 20260506180753 | 12 | 24 | 8.0 | 24.1 | 0.00 | 0.05 | 0.00 | 67 | 1017.7 |
| 20260506175758 | 12 | 324 | 11.3 | 24.1 | 0.00 | 0.05 | 0.00 | 70 | 1017.8 |
| 20260506174753 | 12 | 349 | 6.4 | 16.1 | 0.00 | 0.05 | 0.00 | 72 | 1017.9 |
| 20260506173751 | 11 | 334 | 4.8 | 14.5 | 0.00 | 0.05 | 0.00 | 73 | 1018.1 |
| 20260506172754 | 11 | 22 | 6.4 | 16.1 | 0.00 | 0.05 | 0.00 | 74 | 1018.4 |
| 20260506171754 | 11 | 316 | 6.4 | 17.7 | 0.00 | 0.05 | 0.00 | 74 | 1018.6 |
| 20260506170747 | 11 | 0 | 6.4 | 19.3 | 0.00 | 0.05 | 0.00 | 75 | 1018.6 |
| 20260506165748 | 11 | 33 | 6.4 | 16.1 | 0.00 | 0.05 | 0.00 | 74 | 1017.8 |
| 20260506165254 | 11 | 18 | 4.8 | 14.5 | 0.00 | 0.05 | 0.00 | 74 | 1018.0 |
| 20260506163749 | 11 | 28 | 6.4 | 16.1 | 0.00 | 0.05 | 0.00 | 75 | 1017.8 |
| 20260506162748 | 11 | 46 | 4.8 | 14.5 | 0.00 | 0.05 | 0.00 | 76 | 1017.6 |
| 20260506162225 | 10 | 42 | 4.8 | 14.5 | 0.00 | 0.05 | 0.00 | 75 | 1017.3 |
| 20260506160746 | 10 | 34 | 4.8 | 16.1 | 0.00 | 0.05 | 0.00 | 75 | 1017.4 |
| 20260506155739 | 11 | 355 | 3.2 | 11.3 | 0.00 | 0.05 | 0.00 | 75 | 1017.4 |
| 20260506154739 | 11 | 60 | 3.2 | 16.1 | 0.00 | 0.05 | 0.00 | 76 | 1017.0 |
| 20260506154216 | 10 | 47 | 4.8 | 17.7 | 0.00 | 0.05 | 0.00 | 76 | 1017.0 |
| 20260506152736 | 10 | 67 | 3.2 | 12.9 | 0.00 | 0.05 | 0.00 | 78 | 1016.9 |
| 20260506151736 | 10 | 115 | 4.8 | 16.1 | 0.00 | 0.05 | 0.00 | 78 | 1017.3 |
| 20260506150732 | 10 | 47 | 3.2 | 11.3 | 0.00 | 0.05 | 0.00 | 79 | 1017.5 |
| 20260506145733 | 10 | 355 | 3.2 | 12.9 | 0.00 | 0.05 | 0.00 | 79 | 1017.3 |
| 20260506144734 | 9 | 10 | 4.8 | 17.7 | 0.00 | 0.05 | 0.00 | 80 | 1017.1 |
| 20260506143736 | 9 | 65 | 6.4 | 19.3 | 0.00 | 0.05 | 0.00 | 80 | 1017.0 |
| 20260506142733 | 9 | 10 | 6.4 | 19.3 | 0.00 | 0.05 | 0.00 | 80 | 1016.9 |
| 20260506142207 | 9 | 89 | 4.8 | 17.7 | 0.00 | 0.05 | 0.00 | 81 | 1016.7 |
| 20260506141223 | 8 | 40 | 4.8 | 14.5 | 0.00 | 0.05 | 0.00 | 82 | 1016.7 |
| 20260506135731 | 8 | 38 | 6.4 | 22.5 | 0.00 | 0.05 | 0.00 | 83 | 1016.8 |
| 20260506134736 | 8 | 41 | 6.4 | 17.7 | 0.00 | 0.05 | 0.00 | 83 | 1017.2 |
| 20260506133731 | 8 | 44 | 3.2 | 11.3 | 0.00 | 0.05 | 0.00 | 84 | 1017.2 |
| 20260506132731 | 8 | 34 | 6.4 | 14.5 | 0.00 | 0.05 | 0.00 | 84 | 1017.1 |
| 20260506132212 | 8 | 5 | 6.4 | 16.1 | 0.00 | 0.05 | 0.00 | 83 | 1017.0 |
| 20260506131223 | 8 | 75 | 4.8 | 22.5 | 0.00 | 0.05 | 0.00 | 84 | 1016.9 |
| 20260506130219 | 8 | 40 | 4.8 | 14.5 | 0.00 | 0.05 | 0.00 | 83 | 1016.8 |
| 20260506124731 | 8 | 298 | 6.4 | 16.1 | 0.00 | 0.05 | 0.00 | 83 | 1016.7 |
| 20260506123732 | 8 | 340 | 6.4 | 19.3 | 0.00 | 0.05 | 0.00 | 83 | 1016.6 |
| 20260506122731 | 8 | 19 | 4.8 | 22.5 | 0.00 | 0.05 | 0.00 | 83 | 1016.6 |
| 20260506122203 | 8 | 53 | 4.8 | 20.9 | 0.00 | 0.05 | 0.00 | 83 | 1016.1 |
| 20260506120729 | 7 | 36 | 6.4 | 17.7 | 0.00 | 0.05 | 0.00 | 82 | 1015.7 |
| 20260506115730 | 7 | 333 | 8.0 | 20.9 | 0.00 | 0.05 | 0.00 | 82 | 1015.7 |
| 20260506114730 | 8 | 314 | 8.0 | 20.9 | 0.00 | 0.05 | 0.00 | 82 | 1015.7 |
| 20260506113730 | 8 | 346 | 8.0 | 22.5 | 0.00 | 0.05 | 0.00 | 83 | 1015.5 |
| 20260506112731 | 8 | 355 | 3.2 | 12.9 | 0.00 | 0.05 | 0.00 | 83 | 1015.4 |
| 20260506112217 | 8 | 333 | 3.2 | 9.7 | 0.00 | 0.05 | 0.00 | 82 | 1015.4 |
| 20260506110730 | 8 | 19 | 1.6 | 6.4 | 0.00 | 0.05 | 0.00 | 81 | 1015.1 |
| 20260506104726 | 7 | 50 | 3.2 | 8.0 | 0.00 | 0.05 | 0.00 | 82 | 1014.7 |
| 20260506103725 | 7 | 24 | 3.2 | 16.1 | 0.00 | 0.05 | 0.00 | 82 | 1014.6 |
| 20260506102726 | 7 | 71 | 3.2 | 12.9 | 0.00 | 0.05 | 0.00 | 82 | 1014.1 |
| 20260506101724 | 7 | 49 | 3.2 | 12.9 | 0.00 | 0.08 | 0.00 | 82 | 1014.3 |
| 20260506100725 | 7 | 50 | 4.8 | 19.3 | 0.00 | 0.08 | 0.00 | 82 | 1013.8 |
| 20260506095726 | 7 | 73 | 4.8 | 17.7 | 0.00 | 0.08 | 0.00 | 83 | 1013.5 |
| 20260506094724 | 7 | 21 | 3.2 | 14.5 | 0.00 | 0.08 | 0.00 | 83 | 1013.2 |
| 20260506093725 | 7 | 74 | 3.2 | 9.7 | 0.00 | 0.08 | 0.00 | 82 | 1013.1 |
| 20260506092722 | 8 | 128 | 3.2 | 22.5 | 0.00 | 0.10 | 0.00 | 82 | 1012.7 |
| 20260506091722 | 8 | 71 | 4.8 | 22.5 | 0.00 | 0.10 | 0.00 | 82 | 1012.8 |
| 20260506090722 | 8 | 355 | 4.8 | 20.9 | 0.00 | 0.10 | 0.00 | 84 | 1013.3 |
| 20260506085723 | 8 | 29 | 6.4 | 17.7 | 0.00 | 0.13 | 0.00 | 84 | 1013.3 |
| 20260506084722 | 8 | 75 | 6.4 | 20.9 | 0.00 | 0.13 | 0.00 | 85 | 1013.2 |
| 20260506083722 | 8 | 13 | 3.2 | 16.1 | 0.00 | 0.13 | 0.00 | 86 | 1013.2 |
| 20260506083219 | 8 | 12 | 4.8 | 16.1 | 0.00 | 0.15 | 0.00 | 86 | 1012.8 |
| 20260506081722 | 8 | 72 | 4.8 | 19.3 | 0.00 | 0.18 | 0.00 | 88 | 1012.2 |
| 20260506080722 | 8 | 331 | 4.8 | 16.1 | 0.00 | 0.81 | 0.00 | 88 | 1012.3 |
| 20260506073210 | 8 | 104 | 3.2 | 8.0 | 0.00 | 1.17 | 0.00 | 90 | 1012.1 |
| 20260506070722 | 8 | 0 | 4.8 | 19.3 | 0.00 | 1.17 | 0.00 | 90 | 1012.2 |
| 20260506061717 | 8 | 332 | 6.4 | 20.9 | 0.00 | 1.35 | 0.00 | 90 | 1012.3 |
| 20260506060717 | 8 | 63 | 4.8 | 20.9 | 0.00 | 1.35 | 0.00 | 91 | 1012.5 |
| 20260506050708 | 8 | 342 | 4.8 | 16.1 | 0.00 | 1.35 | 0.00 | 93 | 1012.2 |
| 20260506044710 | 8 | 33 | 4.8 | 16.1 | 0.00 | 1.35 | 1.35 | 93 | 1012.1 |
| 20260506044201 | 8 | 51 | 6.4 | 16.1 | 0.00 | 1.35 | 1.35 | 93 | 1011.9 |
| 20260506042702 | 8 | 14 | 4.8 | 12.9 | 0.00 | 1.35 | 1.35 | 93 | 1012.0 |
| 20260506040703 | 8 | 348 | 4.8 | 14.5 | 0.00 | 1.35 | 1.35 | 92 | 1011.7 |
| 20260506035703 | 8 | 34 | 3.2 | 14.5 | 0.00 | 1.35 | 1.35 | 92 | 1011.5 |
| 20260506034702 | 8 | 49 | 3.2 | 9.7 | 0.00 | 1.35 | 1.35 | 92 | 1011.3 |
| 20260506033702 | 8 | 59 | 4.8 | 17.7 | 0.00 | 1.35 | 1.35 | 92 | 1011.4 |
| 20260506033150 | 8 | 33 | 4.8 | 17.7 | 0.00 | 1.35 | 1.35 | 92 | 1011.2 |
| 20260506031704 | 8 | 40 | 6.4 | 16.1 | 0.00 | 1.35 | 1.35 | 93 | 1011.0 |
| 20260506030658 | 8 | 31 | 6.4 | 19.3 | 0.00 | 1.35 | 1.35 | 93 | 1010.7 |
| 20260506025658 | 8 | 56 | 4.8 | 16.1 | 0.00 | 1.35 | 1.35 | 93 | 1010.6 |
| 20260506024654 | 8 | 15 | 8.0 | 22.5 | 0.00 | 1.35 | 1.35 | 93 | 1010.3 |
| 20260506023653 | 8 | 40 | 6.4 | 16.1 | 0.00 | 1.35 | 1.35 | 94 | 1010.0 |
| 20260506023133 | 8 | 33 | 3.2 | 9.7 | 0.00 | 1.35 | 1.35 | 94 | 1009.9 |
| 20260506020655 | 8 | 340 | 6.4 | 14.5 | 0.00 | 1.35 | 1.35 | 93 | 1009.7 |
| 20260506015653 | 8 | 327 | 3.2 | 12.9 | 0.00 | 1.35 | 1.35 | 93 | 1009.6 |
| 20260506014654 | 8 | 55 | 4.8 | 12.9 | 0.05 | 1.35 | 1.35 | 93 | 1009.5 |
| 20260506013656 | 8 | 26 | 6.4 | 14.5 | 0.05 | 1.35 | 1.35 | 93 | 1009.9 |
| 20260506012654 | 8 | 294 | 4.8 | 14.5 | 0.05 | 1.35 | 1.35 | 93 | 1009.7 |
| 20260506011653 | 8 | 327 | 6.4 | 16.1 | 0.05 | 1.35 | 1.35 | 93 | 1009.4 |
| 20260506010655 | 8 | 340 | 4.8 | 16.1 | 0.05 | 1.35 | 1.35 | 92 | 1009.5 |
| 20260506005655 | 9 | 26 | 6.4 | 19.3 | 0.05 | 1.35 | 1.35 | 92 | 1009.4 |
| 20260506004649 | 9 | 37 | 6.4 | 20.9 | 0.00 | 1.30 | 1.30 | 92 | 1009.1 |
| 20260506003648 | 9 | 345 | 6.4 | 17.7 | 0.00 | 1.30 | 1.30 | 93 | 1009.2 |
| 20260506002647 | 9 | 9 | 8.0 | 17.7 | 0.00 | 1.30 | 1.30 | 93 | 1008.8 |
| 20260506001646 | 9 | 342 | 8.0 | 20.9 | 0.00 | 1.30 | 1.30 | 93 | 1008.9 |
| 20260506000645 | 9 | 309 | 9.7 | 20.9 | 0.00 | 1.30 | 1.30 | 93 | 1008.6 |
| 20260506000125 | 9 | 309 | 8.0 | 19.3 | 0.00 | 1.30 | 1.30 | 93 | 1008.5 |
| 20260505234644 | 10 | 346 | 11.3 | 24.1 | 0.00 | 1.30 | 1.30 | 92 | 1008.3 |
| 20260505233649 | 10 | 349 | 6.4 | 27.4 | 0.00 | 1.30 | 1.30 | 92 | 1007.9 |
| 20260505233124 | 10 | 355 | 12.9 | 27.4 | 0.00 | 1.30 | 1.30 | 92 | 1007.9 |
| 20260505231640 | 10 | 345 | 9.7 | 22.5 | 0.00 | 1.30 | 1.30 | 91 | 1008.3 |
| 20260505230639 | 11 | 15 | 9.7 | 20.9 | 0.00 | 1.30 | 1.30 | 91 | 1008.1 |
| 20260505225640 | 11 | 338 | 9.7 | 19.3 | 0.00 | 1.30 | 1.30 | 91 | 1007.7 |
| 20260505224639 | 11 | 26 | 6.4 | 20.9 | 0.00 | 1.30 | 1.30 | 90 | 1007.1 |
| 20260505223638 | 11 | 355 | 6.4 | 17.7 | 0.00 | 1.30 | 1.30 | 90 | 1007.4 |
| 20260505222637 | 11 | 355 | 9.7 | 19.3 | 0.00 | 1.30 | 1.30 | 90 | 1007.7 |